Powrót do katalogu

STARLINK-4507

AktywnyŁącznośćVLEO
NORAD 53403·PAYLOAD·🇺🇸 United States

Wystrzelony Aug 10, 2022 z Cape Canaveral Space Force Station

Loading…

Następne Przeloty (najbliższe 24 godziny)

TLE

ŚwieżeSource: CelesTrak SupGP

Epoka: Sep 15, 2026, 01:23 UTC

1 53403C 22097R   26258.05812500  .00036009  00000+0  11583-2 0  2584
2 53403  53.1595 344.2404 0000996  87.7561 296.8879 15.31675713    13

Śledź STARLINK-4507 w czasie rzeczywistym z AllMySat

Download on the App Store